Terminal Aerodrome Forecast
Issued by NWS Wilmington, OH

Current Version | Previous Version | Graphics & Text | Print | Product List | Glossary On
Versions: 1 2 3 4 5 6 7 8 9 10 11 12 13 14 15 16 17 18 19 20 21 22 23
181
FTUS41 KILN 210724 AAA
TAFCVG
TAF AMD
KCVG 210724Z 2107/2212 21007KT P6SM -RA SCT050 OVC100
      TEMPO 2109/2111 5SM -TSRA SCT025CB BKN050 OVC100
     FM211300 20010KT P6SM SCT015 BKN025
      TEMPO 2113/2116 4SM BR BKN010 OVC020
     FM211800 21009KT P6SM BKN025
     FM212100 23009KT P6SM VCSH BKN040
     FM220200 27007KT P6SM SCT040
     FM220700 28005KT P6SM SKC=

USA.gov is the U.S. government's official web portal to all federal, state and local government web resources and services.